Location: Lake Arresoe
(56.0000°N, 12.5000°E)
Time: 02:10:48
(UTC+02:00)

CZ-3 Stage 3 - Visible Passes

Search period start: 20 August 2017 00:00
Search period end: 30 August 2017 00:00
Orbit: 429 x 34769 km, 31.0° (Epoch: 18 August)

Date Brightness Start Highest point End Pass type
(mag) Time Alt. Az. Time Alt. Az. Time Alt. Az.
20 Aug 11.1 20:06:23 10° W 20:22:11 11° WSW 20:41:42 10° WSW visible
21 Aug 8.2 15:46:21 10° W 16:27:35 36° SSW 20:54:03 10° SW visible
24 Aug 8.2 15:37:18 10° W 16:17:50 35° SSW 20:37:14 10° SW visible
27 Aug 8.1 15:28:15 10° WSW 16:08:07 34° SSW 20:20:18 10° SW visible
